Home > Time Zones > World Clock > Weather > Iran > Rasht > Past weeks

Flag for Iran Weather past 2 weeks in Rasht, Iran

Now
84 °F

Scattered clouds.


Feels Like: 90 °F
Forecast: 72 / 91 °F
Wind: 2 mph from North

Location: Rasht Airport

Current Time: Jul 26, 2014 at 8:30:22 PM

Latest Report: Jul 26, 2014 at 8:00 PM


Visibility: N/A

Pressure: 29.71 "Hg

Humidity: 66%

Dew point: 72 °F

Location of RashtLocation

Historic Weather in Rasht — Graph

°F

Rasht temperature yesterday

Maximum temperature yesterday: 91 °F (at 1:30 PM)
Minimum temperature yesterday: 72 °F (at 3:30 AM)
Average temperature yesterday: 83 °F

Past Weeks' High & Low Weather Summary

 TemperatureHumidityPressure
High91 °F (Jul 18, 1:30 PM)94% (Jul 12, 4:30 AM)29.89 "Hg (Jul 12, 4:30 AM)
Low68 °F (Jul 24, 4:30 AM)38% (Jul 23, 2:30 PM)29.56 "Hg (Jul 18, 8:30 PM)
Average82 °F66%29.75 "Hg
* Reported Jul 11 7:30 PM — Jul 26 7:30 PM, Rasht, Weather by CustomWeather, © 2014

Note: Actual official high and low records may vary slightly from our data, if they occured in-between our weather recording intervals... More about our weather records

Advertising

Rasht weather history for previous 24 hours

 ConditionsComfort  
Time TempWeatherWind HumidityBarometerVisibility
7:30 PM
Jul 26
84 °FScattered clouds.5 mph66%29.71 "HgN/A
7:00 PM88 °FScattered clouds.5 mph55%29.71 "HgN/A
6:30 PM88 °FScattered clouds.7 mph55%29.71 "HgN/A
6:00 PM88 °FSunny.5 mph55%29.71 "Hg10 mi
5:30 PM88 °FSunny.5 mph55%29.71 "Hg10 mi
5:00 PM90 °FScattered clouds.7 mph49%29.71 "HgN/A
4:30 PM90 °FScattered clouds.5 mph49%29.71 "HgN/A
4:00 PM90 °FScattered clouds.7 mph46%29.74 "HgN/A
3:30 PM90 °FScattered clouds.7 mph46%29.74 "HgN/A
3:00 PM90 °FScattered clouds.7 mph46%29.74 "HgN/A
2:30 PM90 °FScattered clouds.7 mph46%29.74 "HgN/A
2:00 PM90 °FScattered clouds.9 mph49%29.74 "HgN/A
1:30 PM90 °FScattered clouds.12 mph49%29.74 "HgN/A
1:00 PM91 °FPassing clouds.9 mph46%29.74 "HgN/A
12:30 PM91 °FPassing clouds.9 mph46%29.74 "HgN/A
12:00 PM90 °FPassing clouds.9 mph55%29.74 "HgN/A
11:30 AM90 °FPassing clouds.9 mph55%29.74 "HgN/A
11:00 AM88 °FPassing clouds.5 mph62%29.74 "HgN/A
10:30 AM86 °FPassing clouds.7 mph66%29.74 "HgN/A
10:00 AM84 °FPassing clouds.5 mph70%29.74 "HgN/A
9:30 AM84 °FPassing clouds.7 mph70%29.74 "HgN/A
9:00 AM82 °FPassing clouds.No wind70%29.74 "Hg5 mi
8:30 AM82 °FPassing clouds.No wind70%29.74 "Hg5 mi
8:00 AM79 °FClear.No wind74%29.71 "Hg4 mi
7:30 AM79 °FClear.No wind74%29.71 "Hg4 mi
7:00 AM77 °FPassing clouds.No wind89%29.68 "HgN/A
6:30 AM77 °FPassing clouds.No wind89%29.68 "HgN/A
5:30 AM77 °FClear.No wind89%29.68 "Hg4 mi
11:30 PM
Jul 25
79 °FPassing clouds.2 mph84%29.62 "Hg4 mi
9:30 PM81 °FScattered clouds.No wind84%29.59 "Hg4 mi
8:00 PM84 °FScattered clouds.2 mph70%29.56 "Hg4 mi
Weather by CustomWeather, © 2014

See weather overviewHow to use our weather pages